Location: Meanaryar
(48.4161°N, 4.7315°W)
Time: 06:50:51
(UTC+00:00)

NOSS 3-2 (C) - Pass Details

Date: 18 September 2020
Orbit: 795 x 1418 km, 63.4° (Epoch: 02 October)

Event Time Altitude Azimuth Distance (km) Brightness Sun altitude
Rises 20:32:36 0° 318° (NW) 3,919 7.9 -21.2°
Reaches altitude 10° 20:35:08 10° 319° (NW) 3,043 7.1 -21.6°
Maximum altitude 20:42:34 86° 47° (NE) 1,278 4.0 -22.6°
Enters shadow 20:46:12 38° 136° (SE) 1,900 4.5 -23.1°
